FW5641 St. Petersburg FL US current weather conditions

sailwx.info

Wind from 112 at 0 knots gusting 1

Air temperature 21.7° C
Dewpoint 18.5° C

Last reported at 2020-Jan-19 14:54 UTC.
Time now 2020-Jan-19 15:27 UTC

Location: N 27°47' W 082°40'.
View on Google Maps.

See reports from other nearby stations

  
Tides and Currents Weather Stations Pressure Air Temp Water Temp Dewpoint Dewpoint Depression Visibility Wind Speed Wind Dir Waves Ship Positions
date/time (UTC)wind fromknots sea level pressurealtimeterstation pressurevisibilityair tempwater tempwave heightnotes
2020-Jan-19 15:05 091 21.7
2020-Jan-19 15:00 094 21.7
2020-Jan-19 14:54 112 0 gusting 1 21.7
2020-Jan-19 14:49 098 0 gusting 1 21.7
2020-Jan-19 14:44 082 21.7
2020-Jan-19 14:39 079 21.7
2020-Jan-19 14:34 089 0 gusting 1 21.1
2020-Jan-19 14:29 113 1 gusting 2 20.6
2020-Jan-19 14:24 086 20.6
2020-Jan-19 14:19 084 20.6
2020-Jan-19 14:09 085 20.0
2020-Jan-19 14:04 093 20.0
2020-Jan-19 13:59 085 20.0
2020-Jan-19 13:54 086 20.0
2020-Jan-19 13:49 103 19.4
2020-Jan-19 13:44 088 19.4
2020-Jan-19 13:39 104 19.4
2020-Jan-19 13:34 104 19.4
2020-Jan-19 13:29 104 19.4
2020-Jan-19 13:24 094 18.9
2020-Jan-19 13:19 094 18.9
2020-Jan-19 13:14 094 18.9
2020-Jan-19 13:09 094 18.9
2020-Jan-19 13:04 094 18.9
2020-Jan-19 12:59 094 18.9
2020-Jan-19 12:54 093 18.9
2020-Jan-19 12:49 093 18.9
2020-Jan-19 12:44 093 18.9
2020-Jan-19 12:39 093 18.9
2020-Jan-19 12:34 093 18.9
2020-Jan-19 12:29 093 18.3
2020-Jan-19 12:24 093 18.3
2020-Jan-19 12:19 093 18.3
2020-Jan-19 12:14 092 18.3
2020-Jan-19 12:09 091 18.3
2020-Jan-19 12:03 103 18.3
2020-Jan-19 11:58 103 18.3
2020-Jan-19 11:53 103 18.3
2020-Jan-19 11:48 096 18.3
2020-Jan-19 11:43 097 0 gusting 1 18.3
2020-Jan-19 11:38 098 17.8
2020-Jan-19 11:33 087 17.8
2020-Jan-19 11:28 087 17.8
2020-Jan-19 11:23 086 17.8
2020-Jan-19 11:18 087 17.8
2020-Jan-19 11:13 086 17.8
2020-Jan-19 11:08 087 17.8
2020-Jan-19 11:03 088 17.8
2020-Jan-19 10:58 089 17.8
2020-Jan-19 10:53 100 17.8
2020-Jan-19 10:48 100 17.2
2020-Jan-19 10:43 100 17.2
2020-Jan-19 10:38 100 17.2
2020-Jan-19 10:33 100 17.2
2020-Jan-19 10:28 100 17.2
2020-Jan-19 10:23 100 17.2
2020-Jan-19 10:18 100 17.2
2020-Jan-19 10:13 100 17.8
2020-Jan-19 10:08 100 17.8
2020-Jan-19 10:03 100 17.8
2020-Jan-19 09:58 100 17.8
2020-Jan-19 09:53 098 17.8
2020-Jan-19 09:48 099 17.8
2020-Jan-19 09:43 099 17.2
2020-Jan-19 09:38 099 17.2
2020-Jan-19 09:33 099 17.2
2020-Jan-19 09:28 099 17.2
2020-Jan-19 09:23 099 17.2
2020-Jan-19 09:17 099 17.2
2020-Jan-19 09:12 092 17.2
2020-Jan-19 09:07 092 17.2
2020-Jan-19 08:57 092 17.8
2020-Jan-19 08:52 093 17.8
2020-Jan-19 08:47 098 17.8
2020-Jan-19 08:42 097 17.8
2020-Jan-19 08:37 099 18.3
2020-Jan-19 08:32 108 0 gusting 1 18.3
2020-Jan-19 08:27 097 18.3
2020-Jan-19 08:22 097 18.3
2020-Jan-19 08:17 096 18.3
2020-Jan-19 08:12 097 18.3
2020-Jan-19 08:07 097 18.3
2020-Jan-19 08:02 097 18.3
2020-Jan-19 07:57 097 18.3
2020-Jan-19 07:52 096 18.3
2020-Jan-19 07:47 096 18.3
2020-Jan-19 07:42 096 18.3
2020-Jan-19 07:37 085 18.3
2020-Jan-19 07:32 086 18.9
2020-Jan-19 07:27 086 18.9
2020-Jan-19 07:22 085 18.9
2020-Jan-19 07:17 092 18.9
2020-Jan-19 07:12 089 18.9
2020-Jan-19 07:07 088 18.9
2020-Jan-19 07:02 083 18.9
2020-Jan-19 06:57 100 18.9
2020-Jan-19 06:51 088 18.9
2020-Jan-19 06:46 091 18.9
2020-Jan-19 06:41 101 18.9
2020-Jan-19 06:36 094 18.9
2020-Jan-19 06:31 085 18.9
2020-Jan-19 06:26 090 18.9
2020-Jan-19 06:21 074 18.9
2020-Jan-19 06:16 074 18.9
2020-Jan-19 06:11 073 18.9
2020-Jan-19 06:06 087 18.9
2020-Jan-19 06:01 087 18.9
2020-Jan-19 05:56 083 18.9
2020-Jan-19 05:51 090 19.4
2020-Jan-19 05:46 088 19.4
2020-Jan-19 05:41 098 19.4
2020-Jan-19 05:36 085 19.4
2020-Jan-19 05:31 100 19.4
2020-Jan-19 05:26 092 19.4
2020-Jan-19 05:21 089 19.4
2020-Jan-19 05:16 076 19.4
2020-Jan-19 05:11 088 19.4
2020-Jan-19 05:06 087 19.4
2020-Jan-19 05:01 084 19.4
2020-Jan-19 04:56 082 19.4
2020-Jan-19 04:51 088 19.4
2020-Jan-19 04:46 077 19.4
2020-Jan-19 04:41 076 19.4
2020-Jan-19 04:36 078 19.4
2020-Jan-19 04:31 078 20.0
2020-Jan-19 04:26 078 19.4
2020-Jan-19 04:21 079 20.0
2020-Jan-19 04:16 078 20.0
2020-Jan-19 04:11 076 20.0
2020-Jan-19 04:05 081 20.0
2020-Jan-19 04:00 082 20.0
2020-Jan-19 03:55 086 20.0
2020-Jan-19 03:50 104 20.0
2020-Jan-19 03:45 104 20.0
2020-Jan-19 03:40 081 20.0
2020-Jan-19 03:35 076 0 gusting 1 20.0
2020-Jan-19 03:30 095 20.0
2020-Jan-19 03:25 106 20.0
2020-Jan-19 03:20 105 20.0
2020-Jan-19 03:15 089 20.6
2020-Jan-19 03:10 089 20.6
2020-Jan-19 03:05 103 20.6
2020-Jan-19 03:00 093 20.6
2020-Jan-19 02:55 092 0 gusting 1 20.6
2020-Jan-19 02:50 116 20.0
2020-Jan-19 02:45 116 19.4
2020-Jan-19 02:40 116 18.9
2020-Jan-19 02:35 116 18.9
2020-Jan-19 02:30 116 18.9
2020-Jan-19 02:25 116 18.9
2020-Jan-19 02:20 116 18.9
2020-Jan-19 02:15 116 19.4
2020-Jan-19 02:10 116 19.4
2020-Jan-19 02:05 116 19.4
2020-Jan-19 02:00 116 19.4
2020-Jan-19 01:50 116 19.4
2020-Jan-19 01:45 116 19.4
2020-Jan-19 01:40 116 19.4
2020-Jan-19 01:35 116 19.4
2020-Jan-19 01:30 116 19.4
2020-Jan-19 01:25 116 20.0
2020-Jan-19 01:20 116 20.0
2020-Jan-19 01:15 116 20.0
2020-Jan-19 01:10 116 20.0
2020-Jan-19 01:05 116 20.0
2020-Jan-19 01:00 116 20.0
2020-Jan-19 00:55 116 20.0
2020-Jan-19 00:49 116 20.0
2020-Jan-19 00:44 116 20.0
2020-Jan-19 00:39 116 20.0
2020-Jan-19 00:34 116 20.0
2020-Jan-19 00:29 116 20.0
2020-Jan-19 00:24 116 20.0
2020-Jan-19 00:19 116 20.0
2020-Jan-19 00:14 116 20.6
2020-Jan-19 00:09 116 20.6
2020-Jan-19 00:04 116 20.6
2020-Jan-18 23:59 116 20.6
2020-Jan-18 23:54 116 20.6
2020-Jan-18 23:49 116 20.6
2020-Jan-18 23:44 116 20.6
2020-Jan-18 23:39 116 20.6
2020-Jan-18 23:34 116 21.1
2020-Jan-18 23:29 116 21.1
2020-Jan-18 23:24 116 21.1
2020-Jan-18 23:19 116 21.1
2020-Jan-18 23:14 116 21.7
2020-Jan-18 23:09 116 21.7
2020-Jan-18 23:03 116 21.7
2020-Jan-18 22:58 116 22.2
2020-Jan-18 22:53 116 22.2
2020-Jan-18 22:48 116 0 gusting 1 22.2
2020-Jan-18 22:43 070 22.2
2020-Jan-18 22:38 105 22.8
2020-Jan-18 22:33 093 22.8
2020-Jan-18 22:28 112 22.8
2020-Jan-18 22:23 101 23.3
2020-Jan-18 22:18 103 23.9
2020-Jan-18 22:13 117 0 gusting 1 23.9
2020-Jan-18 22:08 102 0 gusting 1 24.4
2020-Jan-18 22:03 141 0 gusting 1 23.9
2020-Jan-18 21:58 105 24.4
2020-Jan-18 21:53 108 0 gusting 1 24.4
2020-Jan-18 21:48 098 1 gusting 2 25.0
2020-Jan-18 21:43 094 0 gusting 1 25.0
2020-Jan-18 21:38 099 0 gusting 1 24.4
2020-Jan-18 21:33 084 1 gusting 2 25.0
2020-Jan-18 21:28 128 1 gusting 1 25.0
2020-Jan-18 21:23 106 25.6
2020-Jan-18 21:18 095 26.1
2020-Jan-18 21:13 095 26.1
2020-Jan-18 21:08 119 0 gusting 1 26.1
2020-Jan-18 21:03 093 26.7
2020-Jan-18 20:58 101 26.7
2020-Jan-18 20:53 081 26.7
2020-Jan-18 20:48 076 0 gusting 1 26.7
2020-Jan-18 20:43 115 1 gusting 3 27.2
2020-Jan-18 20:38 062 1 gusting 2 27.8
2020-Jan-18 20:33 082 26.7
2020-Jan-18 20:28 098 26.7
2020-Jan-18 20:22 089 26.1
2020-Jan-18 20:17 090 0 gusting 1 26.7
2020-Jan-18 20:12 097 26.1
2020-Jan-18 20:07 080 1 gusting 2 26.1
2020-Jan-18 20:02 089 0 gusting 1 26.7
2020-Jan-18 19:57 085 26.7
2020-Jan-18 19:52 091 26.7
2020-Jan-18 19:47 096 0 gusting 1 26.7
2020-Jan-18 19:42 073 0 gusting 1 26.1
2020-Jan-18 19:37 107 0 gusting 1 26.1
2020-Jan-18 19:32 088 0 gusting 1 26.1
2020-Jan-18 19:27 048 1 gusting 2 26.7
2020-Jan-18 19:22 095 0 gusting 1 26.7
2020-Jan-18 19:17 101 26.7
2020-Jan-18 19:12 068 0 gusting 1 26.1
2020-Jan-18 19:07 073 0 gusting 1 25.6
2020-Jan-18 19:02 070 0 gusting 1 25.6
2020-Jan-18 18:57 094 1 gusting 2 26.1
2020-Jan-18 18:52 120 0 gusting 1 26.1
2020-Jan-18 18:47 083 26.7
2020-Jan-18 18:42 115 0 gusting 1 26.7
2020-Jan-18 18:37 090 0 gusting 1 26.1
2020-Jan-18 18:32 096 0 gusting 1 25.6
2020-Jan-18 18:27 109 0 gusting 1 25.6
2020-Jan-18 18:22 071 2 gusting 3 25.0
2020-Jan-18 18:17 061 1 gusting 2 25.0
2020-Jan-18 18:12 081 25.0
2020-Jan-18 18:07 099 0 gusting 1 25.0
2020-Jan-18 18:02 074 0 gusting 1 25.0
2020-Jan-18 17:57 057 1 gusting 2 25.0
2020-Jan-18 17:52 056 1 gusting 2 25.0
2020-Jan-18 17:47 069 0 gusting 1 25.0
2020-Jan-18 17:42 057 3 gusting 5 24.4
2020-Jan-18 17:36 087 0 gusting 1 25.0
2020-Jan-18 17:31 076 0 gusting 1 24.4
2020-Jan-18 17:26 082 0 gusting 2 25.0
2020-Jan-18 17:21 103 0 gusting 1 25.0
2020-Jan-18 17:16 098 1 gusting 3 24.4
2020-Jan-18 17:11 080 0 gusting 1 24.4
2020-Jan-18 17:06 082 0 gusting 1 24.4
2020-Jan-18 17:01 089 0 gusting 1 23.9
2020-Jan-18 16:56 095 0 gusting 1 23.9
2020-Jan-18 16:51 090 0 gusting 1 23.9
2020-Jan-18 16:46 065 0 gusting 2 23.9
2020-Jan-18 16:41 096 0 gusting 1 24.4
2020-Jan-18 16:36 112 1 gusting 2 23.9
2020-Jan-18 16:31 096 0 gusting 1 23.9
2020-Jan-18 16:26 095 0 gusting 1 23.9
2020-Jan-18 16:16 112 0 gusting 1 23.9
2020-Jan-18 16:11 081 23.3
2020-Jan-18 16:06 095 23.3
2020-Jan-18 16:01 097 0 gusting 1 22.8
2020-Jan-18 15:56 111 0 gusting 1 22.8
2020-Jan-18 15:51 096 0 gusting 1 22.2
2020-Jan-18 15:46 080 0 gusting 1 22.2
2020-Jan-18 15:41 100 0 gusting 1 22.2
2020-Jan-18 15:36 090 0 gusting 1 21.7
2020-Jan-18 15:31 096 21.7
2020-Jan-18 15:26 080 21.1
2020-Jan-18 15:21 084 21.1
2020-Jan-18 15:16 088 0 gusting 1 21.1
2020-Jan-18 15:11 075 20.6
2020-Jan-18 15:06 080 20.6
2020-Jan-18 15:01 087 20.6
2020-Jan-18 14:56 068 20.6
2020-Jan-18 14:50 095 0 gusting 1 20.0
2020-Jan-18 14:45 063 1 gusting 2 20.0
2020-Jan-18 14:40 080 20.0
2020-Jan-18 14:35 066 0 gusting 1 20.0
2020-Jan-18 14:30 072 20.0
2020-Jan-18 14:25 089 1 gusting 2 20.0
2020-Jan-18 14:20 070 0 gusting 1 20.0
2020-Jan-18 14:15 084 0 gusting 1 20.0
2020-Jan-18 14:10 054 0 gusting 1 20.0
2020-Jan-18 14:05 078 1 gusting 2 19.4
2020-Jan-18 14:00 077 19.4
2020-Jan-18 13:55 070 19.4
2020-Jan-18 13:50 041 0 gusting 1 19.4
2020-Jan-18 13:45 076 19.4
2020-Jan-18 13:40 078 0 gusting 1 18.9
2020-Jan-18 13:35 073 0 gusting 1 18.9
2020-Jan-18 13:30 073 18.9
2020-Jan-18 13:25 081 0 gusting 1 18.3
2020-Jan-18 13:20 073 0 gusting 3 18.3
2020-Jan-18 13:15 081 18.3
2020-Jan-18 13:10 070 0 gusting 2 18.3
2020-Jan-18 13:05 088 0 gusting 1 18.3
2020-Jan-18 13:00 070 0 gusting 1 18.3
2020-Jan-18 12:55 081 0 gusting 1 18.3
2020-Jan-18 12:50 077 0 gusting 1 18.3
2020-Jan-18 12:45 057 0 gusting 2 18.3
2020-Jan-18 12:40 077 18.3
2020-Jan-18 12:35 087 0 gusting 1 18.3
2020-Jan-18 12:30 083 0 gusting 1 18.3
2020-Jan-18 12:25 086 0 gusting 1 18.3
2020-Jan-18 12:20 083 0 gusting 1 18.3
2020-Jan-18 12:15 065 2 gusting 4 18.3
2020-Jan-18 12:09 071 18.3
2020-Jan-18 12:04 074 1 gusting 3 18.3
2020-Jan-18 11:59 086 1 gusting 3 17.8
2020-Jan-18 11:54 082 0 gusting 2 18.3
2020-Jan-18 11:49 068 1 gusting 3 17.8
2020-Jan-18 11:44 084 0 gusting 2 17.8
2020-Jan-18 11:39 075 3 gusting 6 18.3
2020-Jan-18 11:34 088 17.8
2020-Jan-18 11:29 070 1 gusting 3 17.8
2020-Jan-18 11:24 084 0 gusting 1 17.8
2020-Jan-18 11:19 055 2 gusting 5 18.3
2020-Jan-18 11:14 078 18.3
2020-Jan-18 11:09 063 3 gusting 4 18.3
2020-Jan-18 11:04 049 1 gusting 3 18.3
2020-Jan-18 10:59 050 0 gusting 2 18.3
2020-Jan-18 10:54 069 1 gusting 2 18.3
2020-Jan-18 10:49 043 2 gusting 5 18.3
2020-Jan-18 10:44 025 1 gusting 3 17.8
2020-Jan-18 10:39 082 0 gusting 2 18.3
2020-Jan-18 10:34 062 0 gusting 1 18.3
2020-Jan-18 10:29 061 2 gusting 3 18.3
2020-Jan-18 10:24 063 0 gusting 2 18.3
2020-Jan-18 10:19 063 0 gusting 1 18.3
2020-Jan-18 10:14 060 2 gusting 3 18.3
2020-Jan-18 10:09 069 0 gusting 1 18.3
2020-Jan-18 10:04 038 3 gusting 4 18.3
2020-Jan-18 09:59 071 18.3
2020-Jan-18 09:54 066 3 gusting 6 18.3
2020-Jan-18 09:49 084 2 gusting 4 18.3
2020-Jan-18 09:44 063 0 gusting 2 18.3
2020-Jan-18 09:39 070 1 gusting 3 18.3
2020-Jan-18 09:34 081 0 gusting 2 18.3
2020-Jan-18 09:29 095 1 gusting 2 18.3
2020-Jan-18 09:24 089 0 gusting 1 18.3
2020-Jan-18 09:18 084 0 gusting 1 18.3
2020-Jan-18 09:13 062 0 gusting 2 18.3
2020-Jan-18 09:08 072 2 gusting 3 18.3
2020-Jan-18 09:03 043 3 gusting 5 18.3
2020-Jan-18 08:58 097 0 gusting 1 18.3
2020-Jan-18 08:53 047 1 gusting 3 18.3
2020-Jan-18 08:48 090 4 gusting 8 18.3
2020-Jan-18 08:43 051 0 gusting 1 18.3
2020-Jan-18 08:38 071 1 gusting 2 18.3
2020-Jan-18 08:33 084 1 gusting 1 18.3
2020-Jan-18 08:28 063 3 gusting 7 18.3
2020-Jan-18 08:23 062 0 gusting 2 18.9
2020-Jan-18 08:18 078 1 gusting 2 18.9
2020-Jan-18 08:13 053 3 gusting 6 18.9
2020-Jan-18 08:08 048 1 gusting 3 18.9
2020-Jan-18 08:03 083 2 gusting 3 18.9
2020-Jan-18 07:58 066 1 gusting 4 18.3
2020-Jan-18 07:53 040 3 gusting 6 18.3
2020-Jan-18 07:48 066 1 gusting 2 18.3
2020-Jan-18 07:43 082 1 gusting 4 18.3
2020-Jan-18 07:38 032 1 gusting 4 18.9
2020-Jan-18 07:33 071 1 gusting 3 18.9
2020-Jan-18 07:28 063 1 gusting 2 18.9
2020-Jan-18 07:23 063 0 gusting 1 18.9
2020-Jan-18 07:18 044 2 gusting 5 18.9
2020-Jan-18 07:13 068 0 gusting 1 18.9
2020-Jan-18 07:08 065 1 gusting 3 18.9
2020-Jan-18 07:03 093 3 gusting 4 18.9
2020-Jan-18 06:58 055 1 gusting 3 18.9
2020-Jan-18 06:53 054 1 gusting 3 18.9
2020-Jan-18 06:48 070 2 gusting 3 18.9
2020-Jan-18 06:43 070 1 gusting 3 18.9
2020-Jan-18 06:38 069 3 gusting 6 18.9
2020-Jan-18 06:33 045 1 gusting 2 18.9
2020-Jan-18 06:28 055 1 gusting 3 18.9
2020-Jan-18 06:22 050 3 gusting 4 18.9
2020-Jan-18 04:03 074 2 gusting 5 20.0
2020-Jan-18 03:58 077 2 gusting 4 20.0
2020-Jan-18 03:53 066 3 gusting 4 20.0
2020-Jan-18 03:48 062 2 gusting 3 20.0
2020-Jan-18 03:43 065 0 gusting 3 20.0
2020-Jan-18 03:38 064 2 gusting 4 20.0
2020-Jan-18 03:33 060 1 gusting 2 20.0
2020-Jan-18 03:28 051 1 gusting 2 20.0
2020-Jan-18 03:22 067 0 gusting 2 20.0
2020-Jan-18 03:17 077 0 gusting 2 20.0
2020-Jan-18 03:12 061 3 gusting 5 20.0
2020-Jan-18 03:07 043 2 gusting 4 20.0
2020-Jan-18 03:02 054 4 gusting 7 20.0
2020-Jan-18 02:57 106 2 gusting 3 20.0
2020-Jan-18 02:52 046 3 gusting 10 20.0
2020-Jan-18 02:47 053 1 gusting 2 20.0
2020-Jan-18 02:42 068 0 gusting 1 20.0
2020-Jan-18 02:37 067 1 gusting 3 20.0
2020-Jan-18 02:32 075 1 gusting 3 20.6
2020-Jan-18 02:27 039 1 gusting 2 20.6
2020-Jan-18 02:22 043 2 gusting 5 20.6
2020-Jan-18 02:17 057 2 gusting 3 20.6
2020-Jan-18 02:12 050 5 gusting 6 20.6
2020-Jan-18 02:07 123 5 gusting 8 20.6
2020-Jan-18 02:02 063 2 gusting 5 20.6
2020-Jan-18 01:57 055 1 gusting 2 20.6
2020-Jan-18 01:52 060 2 gusting 5 20.6
2020-Jan-18 01:47 044 0 gusting 2 20.6
2020-Jan-18 01:42 096 1 gusting 3 20.6
2020-Jan-18 01:37 043 2 gusting 5 21.1
2020-Jan-18 01:32 047 3 gusting 7 21.1
2020-Jan-18 01:27 064 2 gusting 4 21.1
2020-Jan-18 01:22 070 0 gusting 1 21.1
2020-Jan-18 01:17 044 2 gusting 5 21.1
2020-Jan-18 01:12 100 5 gusting 7 21.1
2020-Jan-18 01:07 060 2 gusting 6 21.1
2020-Jan-18 01:02 064 1 gusting 2 21.1
2020-Jan-18 00:57 057 3 gusting 5 21.7
2020-Jan-18 00:52 062 3 gusting 5 21.7
2020-Jan-18 00:47 058 3 gusting 6 21.7
2020-Jan-18 00:42 066 2 gusting 4 21.7
2020-Jan-18 00:37 047 1 gusting 4 21.7
2020-Jan-18 00:32 058 4 gusting 6 21.7
2020-Jan-18 00:26 047 5 gusting 7 21.7
2020-Jan-18 00:21 029 3 gusting 5 21.7
2020-Jan-18 00:16 041 2 gusting 4 21.7
2020-Jan-18 00:11 031 1 gusting 4 22.2
2020-Jan-18 00:06 072 0 gusting 2 22.2
2020-Jan-18 00:01 061 0 gusting 2 22.2
2020-Jan-17 23:56 038 3 gusting 7 22.2
2020-Jan-17 23:51 075 0 gusting 2 22.2
2020-Jan-17 23:46 053 2 gusting 4 22.2
2020-Jan-17 23:41 056 0 gusting 3 22.2
2020-Jan-17 23:36 083 1 gusting 2 22.2
2020-Jan-17 23:31 065 2 gusting 6 22.2
2020-Jan-17 23:26 064 2 gusting 3 22.8
2020-Jan-17 23:21 039 1 gusting 3 22.8
2020-Jan-17 23:16 084 2 gusting 2 22.8
2020-Jan-17 23:11 080 2 gusting 4 22.8
2020-Jan-17 23:06 052 6 gusting 8 22.8
2020-Jan-17 23:01 090 3 gusting 5 22.8
2020-Jan-17 22:56 062 0 gusting 1 22.8
2020-Jan-17 22:51 045 1 gusting 2 23.3
2020-Jan-17 22:46 057 6 gusting 9 23.3
2020-Jan-17 22:41 061 1 gusting 3 23.3
2020-Jan-17 22:36 266 3 gusting 4 23.3
2020-Jan-17 22:31 078 3 gusting 4 23.3
2020-Jan-17 22:26 088 0 gusting 1 23.9
2020-Jan-17 22:21 090 2 gusting 3 23.9
2020-Jan-17 22:16 100 1 gusting 3 23.9
2020-Jan-17 22:11 052 3 gusting 5 23.9
2020-Jan-17 22:06 051 1 gusting 2 23.9
2020-Jan-17 22:01 078 0 gusting 2 23.9
2020-Jan-17 21:56 060 3 gusting 4 24.4
2020-Jan-17 21:51 061 0 gusting 1 24.4
2020-Jan-17 21:46 037 3 gusting 5 24.4
2020-Jan-17 21:41 030 5 gusting 6 24.4
2020-Jan-17 21:36 056 4 gusting 6 25.0
2020-Jan-17 21:31 036 2 gusting 5 25.0
2020-Jan-17 21:25 051 3 gusting 5 25.0
2020-Jan-17 21:20 058 0 gusting 2 25.0
2020-Jan-17 21:15 053 2 gusting 6 25.0
2020-Jan-17 21:10 045 5 gusting 7 25.0
2020-Jan-17 21:05 053 2 gusting 4 25.6
2020-Jan-17 21:00 042 3 gusting 6 25.0
2020-Jan-17 20:55 092 0 gusting 2 25.6
2020-Jan-17 20:50 043 3 gusting 6 25.6
2020-Jan-17 20:45 062 1 gusting 4 25.6
2020-Jan-17 20:40 055 4 gusting 8 25.6
2020-Jan-17 20:35 049 3 gusting 5 25.6
2020-Jan-17 20:30 049 3 gusting 4 25.6
2020-Jan-17 20:25 044 1 gusting 5 26.1
2020-Jan-17 20:20 088 0 gusting 1 26.1
2020-Jan-17 20:15 053 1 gusting 3 25.6
2020-Jan-17 20:10 067 3 gusting 6 25.6
2020-Jan-17 20:05 064 1 gusting 4 25.6
2020-Jan-17 20:00 073 2 gusting 4 26.1
2020-Jan-17 19:55 070 0 gusting 1 25.6
2020-Jan-17 19:50 068 3 gusting 6 25.6
2020-Jan-17 19:45 065 1 gusting 5 25.6
2020-Jan-17 19:40 064 2 gusting 5 25.6
2020-Jan-17 19:35 092 1 gusting 2 25.6
2020-Jan-17 19:30 052 1 gusting 2 25.6
2020-Jan-17 19:25 066 3 gusting 4 25.6
2020-Jan-17 19:15 041 3 gusting 6 25.6
2020-Jan-17 19:10 040 3 gusting 6 25.6
2020-Jan-17 19:05 052 2 gusting 3 25.6
2020-Jan-17 19:00 065 4 gusting 6 25.6
2020-Jan-17 18:55 082 0 gusting 1 25.6
2020-Jan-17 18:50 072 1 gusting 4 25.6
2020-Jan-17 18:45 059 0 gusting 2 25.6
2020-Jan-17 18:40 053 2 gusting 6 26.1
2020-Jan-17 18:35 102 1 gusting 2 26.1
2020-Jan-17 18:30 082 3 gusting 5 25.6
2020-Jan-17 18:25 056 1 gusting 5 25.6
2020-Jan-17 18:20 074 5 gusting 7 25.6
2020-Jan-17 18:15 051 3 gusting 7 25.6
2020-Jan-17 18:09 058 0 gusting 1 25.6
2020-Jan-17 18:04 076 2 gusting 4 25.6
2020-Jan-17 17:59 058 2 gusting 4 25.6
2020-Jan-17 17:54 058 2 gusting 2 25.6
2020-Jan-17 17:49 060 1 gusting 4 25.6
2020-Jan-17 17:44 055 2 gusting 6 25.0
2020-Jan-17 17:39 076 2 gusting 4 25.6
2020-Jan-17 17:34 037 3 gusting 7 25.6
2020-Jan-17 17:29 072 2 gusting 5 25.0
2020-Jan-17 17:24 059 1 gusting 3 25.0
2020-Jan-17 17:19 039 2 gusting 4 25.0
2020-Jan-17 17:14 071 2 gusting 4 24.4
2020-Jan-17 17:09 095 2 gusting 3 24.4
2020-Jan-17 17:04 052 3 gusting 5 24.4
2020-Jan-17 16:59 036 2 gusting 5 24.4
2020-Jan-17 16:54 059 1 gusting 3 24.4
2020-Jan-17 16:49 120 3 gusting 4 24.4
2020-Jan-17 16:44 057 1 gusting 3 23.9
2020-Jan-17 16:39 080 2 gusting 4 24.4
2020-Jan-17 16:34 066 4 gusting 7 23.9
2020-Jan-17 16:29 037 2 gusting 4 23.9
2020-Jan-17 16:24 068 4 gusting 10 23.9
2020-Jan-17 16:19 068 2 gusting 4 23.9
2020-Jan-17 16:14 051 2 gusting 5 23.9
2020-Jan-17 16:09 071 1 gusting 4 23.9
2020-Jan-17 16:04 064 2 gusting 4 23.9
2020-Jan-17 15:59 092 1 gusting 2 23.9
2020-Jan-17 15:54 067 4 gusting 7 23.3
2020-Jan-17 15:49 068 2 gusting 5 23.3
2020-Jan-17 15:44 062 4 gusting 6 23.3
2020-Jan-17 15:39 063 1 gusting 2 22.8
2020-Jan-17 15:34 357 4 gusting 7 22.8
2020-Jan-17 15:29 071 2 gusting 6 22.8
2020-Jan-17 15:24 044 5 gusting 8 22.2
2020-Jan-17 15:19 052 3 gusting 8 22.8
2020-Jan-17 15:14 001 5 gusting 7 22.2
2020-Jan-17 15:09 079 1 gusting 2 22.2
2020-Jan-17 15:04 076 5 gusting 7 22.2